星链-2603 (STARLINK-2603 )

导读

STARLINK-2603是美国SpaceX公司星链(Starlink)互联网卫星项目中的一颗卫星,于2021年5月4日发射升空。星链卫星单颗重约260kg,运行在约550km近地轨道,相比传统通信卫星延迟更低、服务质量更好,可以为偏远地区提供高速互联网接入,支撑远程办公、流媒体、在线游戏等多元网络需求。STARLINK-2603的入轨进一步扩充了星链卫星星座规模,助力完成全球覆盖的组网目标。

Basic Information
目录编号:
48375
目录名称:
STARLINK-2603
国际标识:
2021-038Y
轨道中心:
EARTH
卫星名称:
星链-2603
卫星全名:
星链-2603 (STARLINK-2603 )
卫星状态:
在轨 (已飞行1949 天)
发射日期:
2021-05-04 UTC
国别 :
美国 (US)
星等 :
--
Orbit Information
数据来源 国际轨道数据 AOE轨道数据
星历时间 2026-09-03T19:10:13+0800
18小时前
查看轨道信息
2026-09-03T23:00:00+0800
14小时前
查看轨道信息
半长轴 6848.859km 6848.896km
偏心率 0.0001275 0.0001231
轨道倾角 53.158° 53.158°
近地点辐角 94.855° 76.931°
升交点赤经 240.498° 239.755°
平近点角 265.260° 83.547°
近地点 469.848km 469.915km
远地点 471.596km 471.603km
周期 94.013分钟 94.014分钟
每日圈数 15.317061 15.316938
Detailed Information
固有亮度:
5
最大亮度:
2.5
卫星平台:
Starlink V1.0
覆盖范围:
全球
运营商:
太空探索技术公司
运营商所在国:
美国
制造商(研发单位):
太空探索技术公司
制造商所在国:
美国
使用方式:
暂无
Satellite Introduction
星链(Starlink)计划是由太空探索技术公司(SpaceX)提出的一个巨型低轨卫星互联网星座项目,计划在2019年至2024年间在太空搭建由约1.2万颗卫星组成的“星链”网络,其中1584颗将部署在地球上空550千米处的近地轨道,并从2020年开始工作。该卫星仍在工作。
2D Orbit Map
3D Orbit Map
Orbit Altitude Analysis Chart
Orbit Inclination Analysis Chart
Orbit Comprehensive Analysis Chart
View Comprehensive Chart
Conjunction Data List
Event ID Objects TCA Miss Dist (km) Collision Risk Probability Collision Risk Index (CRI) Action
CDM_260905-103704-837506-769921
2026-09-05T
10:37:08+0000
2.560 km
极远距离
1.593388E-6 低风险 0.39
CDM_260903-074204-837505-348721
2026-09-03T
07:42:42+0000
2.944 km
极远距离
1.286064E-6 低风险 0.37